IZ4UFQ-10 Weather Reports


Display with metric or nautical units.
time (UTC)temp
F
wind
direction
speed
MPH
gust
MPH
rain 1hr
in
rain 24hr
in
rain mn
in
humidity
%
barometer
mb
20260506073231 57 102 0.0 0.0 0.07 1.24 1.13 96 1009.5
20260506072731 57 111 0.0 0.0 0.07 1.23 1.12 96 1009.4
20260506072231 57 112 0.0 0.0 0.08 1.23 1.12 96 1009.5
20260506071730 57 113 0.0 0.0 0.10 1.23 1.12 96 1009.5
20260506071230 57 127 0.0 0.0 0.11 1.22 1.11 96 1009.6
20260506070730 57 127 0.0 0.0 0.14 1.22 1.11 96 1009.6
20260506070229 57 128 0.0 0.0 0.15 1.21 1.10 96 1009.6
20260506062227 56 117 0.0 0.0 0.19 1.15 1.04 95 1009.9
20260506061727 56 118 0.0 0.0 0.18 1.13 1.02 95 1009.8
20260506061227 56 116 0.0 0.0 0.17 1.11 1.00 95 1009.8
20260506060726 56 116 0.0 0.0 0.15 1.08 0.97 95 1009.7
20260506060226 56 118 0.0 0.0 0.14 1.06 0.95 95 1009.6
20260506051223 56 129 0.0 0.0 0.20 1.20 0.83 95 1009.9
20260506050723 56 135 0.0 0.0 0.22 1.19 0.82 95 1010.1
20260506050222 56 137 0.0 0.0 0.24 1.18 0.81 95 1010.1
20260506044722 56 134 0.0 0.0 0.28 1.17 0.78 95 1010.3
20260506044221 56 127 0.0 0.0 0.28 1.16 0.77 95 1010.2
20260506043721 56 126 0.0 0.0 0.27 1.15 0.76 95 1010.1
20260506043221 56 178 0.0 0.0 0.25 1.13 0.74 95 1009.8
20260506042720 56 179 0.0 0.0 0.24 1.12 0.73 95 1009.9
20260506042220 56 178 0.0 0.0 0.21 1.09 0.70 95 1010.2
20260506041720 56 164 0.0 0.0 0.18 1.06 0.67 95 1010.3
20260506041220 56 146 0.0 0.0 0.14 1.02 0.63 95 1010.5
20260506040719 56 176 0.0 0.0 0.11 0.99 0.60 95 1010.3
20260506040219 56 144 0.0 0.0 0.09 0.96 0.57 95 1010.3
20260506035719 56 158 0.0 0.0 0.07 0.93 0.54 95 1010.3
20260506035218 56 146 0.0 0.0 0.07 0.91 0.52 95 1010.2
20260506034718 56 178 0.0 0.0 0.06 0.89 0.50 95 1010.2
20260506034218 56 181 0.0 0.0 0.06 0.88 0.49 95 1010.2
20260506033718 56 141 0.0 0.0 0.08 0.88 0.49 95 1010.1
20260506033217 56 142 0.0 0.0 0.08 0.88 0.49 95 1010.1
20260506032717 57 126 0.0 0.0 0.09 0.88 0.49 95 1010.0
20260506032217 57 126 0.0 0.0 0.10 0.88 0.49 95 1010.1
20260506031716 57 125 0.0 0.0 0.11 0.88 0.49 95 1010.1
20260506031216 57 133 0.0 0.0 0.11 0.88 0.49 95 1010.0
20260506030716 58 121 0.0 0.0 0.11 0.88 0.49 95 1010.0
20260506030216 58 125 0.0 0.0 0.10 0.87 0.48 95 1010.0
20260506025715 58 359 0.0 0.0 0.09 0.86 0.47 95 1010.2
20260506025215 58 121 0.0 0.0 0.08 0.84 0.45 95 1010.3
20260506024715 58 359 0.0 0.0 0.08 0.83 0.44 95 1010.2
20260506024214 58 359 0.0 0.0 0.09 0.82 0.43 95 1010.3
20260506023714 58 120 0.0 0.0 0.09 0.80 0.41 94 1010.3
20260506023214 58 125 0.0 0.0 0.11 0.80 0.41 95 1010.4
20260506022714 58 67 0.0 0.0 0.12 0.79 0.40 95 1010.4
20260506022213 58 67 0.0 0.0 0.13 0.78 0.39 94 1010.6
20260506021713 59 64 0.0 0.0 0.15 0.77 0.38 94 1010.8
20260506021213 59 66 0.0 0.0 0.16 0.77 0.38 94 1010.9
20260506020712 59 64 0.0 0.0 0.18 0.77 0.38 94 1011.1
20260506020212 59 62 0.0 0.0 0.21 0.77 0.38 94 1010.9
20260506015712 59 54 0.0 0.0 0.24 0.77 0.38 94 1010.8
20260506015211 59 52 0.0 0.0 0.25 0.76 0.37 94 1010.8
20260506014711 59 44 0.0 0.0 0.27 0.75 0.36 94 1010.6
20260506014211 59 47 0.0 0.0 0.27 0.73 0.34 94 1011.0
20260506013711 59 47 0.0 0.0 0.27 0.71 0.32 94 1011.3
20260506013210 59 45 0.0 0.0 0.27 0.69 0.30 94 1011.5
20260506012710 59 45 0.0 0.0 0.26 0.67 0.28 94 1011.3
20260506012210 59 45 0.0 0.0 0.25 0.65 0.26 94 1011.3
20260506011710 59 47 0.0 0.0 0.22 0.62 0.23 94 1011.4
20260506011209 59 45 0.0 0.0 0.21 0.61 0.22 93 1011.6
20260506010709 59 47 0.0 0.0 0.19 0.59 0.20 93 1011.6
20260506010209 59 44 0.0 0.0 0.16 0.56 0.17 93 1011.7
20260506005708 59 45 0.0 0.0 0.13 0.53 0.14 93 1011.6
20260506005208 59 45 0.0 0.0 0.11 0.51 0.12 93 1011.6
20260506004708 59 45 0.0 0.0 0.08 0.48 0.09 93 1011.5
20260506004207 59 44 0.0 0.0 0.06 0.46 0.07 93 1011.3
20260506003707 59 45 0.0 0.0 0.04 0.44 0.05 93 1011.2
20260506003207 59 45 0.0 0.0 0.02 0.42 0.03 93 1011.2
20260506002707 59 45 0.0 0.0 0.01 0.41 0.02 93 1011.0
20260506002206 59 45 0.0 0.0 0.01 0.40 0.01 93 1011.0
20260506001706 59 45 0.0 0.0 0.01 0.40 0.01 93 1011.0
20260506001206 59 45 0.0 0.0 0.01 0.40 0.01 93 1011.0
20260506000705 59 45 0.0 0.0 0.01 0.40 0.01 93 1011.1
20260506000205 59 45 0.0 0.0 0.01 0.40 0.01 92 1011.3
20260505235705 59 45 0.0 0.0 0.01 0.40 0.01 92 1011.5
20260505235205 59 45 0.0 0.0 0.01 0.40 0.01 92 1011.6
20260505234704 59 45 0.0 0.0 0.01 0.40 0.01 92 1011.7
20260505234204 59 45 0.0 0.0 0.01 0.40 0.01 92 1011.7
20260505233704 59 41 0.0 0.0 0.01 0.40 0.01 92 1011.8
20260505233203 59 40 0.0 0.0 0.01 0.40 0.01 92 1011.7
20260505232703 59 40 0.0 0.0 0.01 0.40 0.01 92 1011.7
20260505232203 59 39 0.0 0.0 0.00 0.39 0.00 92 1011.7
20260505231703 59 39 0.0 0.0 0.00 0.39 0.00 92 1011.7
20260505231202 59 39 0.0 0.0 0.00 0.39 0.00 92 1011.7
20260505230702 59 40 0.0 0.0 0.00 0.39 0.00 91 1011.7
20260505230202 59 40 0.0 0.0 0.00 0.39 0.00 91 1011.6
20260505225701 59 39 0.0 0.0 0.00 0.39 0.00 91 1011.7
20260505225201 59 39 0.0 0.0 0.00 0.39 0.00 91 1011.8
20260505224701 59 39 0.0 0.0 0.00 0.39 0.00 91 1011.8
20260505224201 59 39 0.0 0.0 0.00 0.39 0.00 91 1011.9
20260505223700 59 39 0.0 0.0 0.00 0.39 0.00 91 1011.8
20260505223200 60 39 0.0 0.0 0.00 0.39 0.00 91 1011.9
20260505222700 60 40 0.0 0.0 0.00 0.39 0.00 91 1011.9
20260505222159 60 39 0.0 0.0 0.00 0.39 0.00 91 1012.1
20260505221659 60 39 0.0 0.0 0.00 0.39 0.00 90 1012.1
20260505221159 60 39 0.0 0.0 0.00 0.39 0.00 90 1012.2
20260505220659 60 39 0.0 0.0 0.00 0.39 0.00 90 1012.2
20260505220158 60 39 0.0 0.0 0.00 0.39 0.00 90 1012.2
20260505215658 60 39 0.0 0.0 0.00 0.39 0.00 90 1012.2
20260505215158 60 39 0.0 0.0 0.00 0.39 0.39 90 1012.2
20260505214657 60 40 0.0 0.0 0.00 0.39 0.39 90 1012.4
20260505214157 60 40 0.0 0.0 0.00 0.39 0.39 89 1012.4
20260505213657 60 40 0.0 0.0 0.00 0.39 0.39 89 1012.5
20260505213157 60 39 0.0 0.0 0.00 0.39 0.39 89 1012.5
20260505212656 60 40 0.0 0.0 0.00 0.39 0.39 89 1012.6
20260505212156 61 40 0.0 0.0 0.00 0.39 0.39 88 1012.5
20260505211656 61 40 0.0 0.0 0.00 0.39 0.39 88 1012.5
20260505211155 61 39 0.0 0.0 0.00 0.39 0.39 88 1012.5
20260505210655 61 40 0.0 0.0 0.00 0.39 0.39 88 1012.5
20260505210155 61 39 0.0 0.0 0.00 0.39 0.39 87 1012.4
20260505205655 61 40 0.0 0.0 0.00 0.39 0.39 87 1012.4
20260505205154 62 40 0.0 0.0 0.00 0.39 0.39 87 1012.5
20260505204654 62 40 0.0 0.0 0.00 0.39 0.39 87 1012.4
20260505204154 62 40 0.0 0.0 0.00 0.39 0.39 87 1012.5
20260505203653 62 39 0.0 0.0 0.00 0.39 0.39 87 1012.3
20260505203153 62 39 0.0 0.0 0.00 0.39 0.39 87 1012.3
20260505202653 62 39 0.0 0.0 0.00 0.39 0.39 87 1012.4
20260505202153 62 39 0.0 0.0 0.00 0.39 0.39 86 1012.4
20260505201652 62 39 0.0 0.0 0.00 0.39 0.39 86 1012.4
20260505201152 62 40 0.0 0.0 0.00 0.39 0.39 86 1012.3
20260505200652 62 39 0.0 0.0 0.00 0.39 0.39 86 1012.3
20260505200151 62 43 0.0 0.0 0.00 0.39 0.39 85 1012.4
20260505195651 63 45 0.0 0.0 0.00 0.39 0.39 85 1012.3
20260505195151 63 45 0.0 0.0 0.00 0.39 0.39 85 1012.3
20260505194650 63 47 0.0 0.0 0.00 0.39 0.39 85 1012.2
20260505194150 63 47 0.0 0.0 0.00 0.39 0.39 85 1012.1
20260505193650 63 48 0.0 0.0 0.00 0.39 0.39 84 1012.0
20260505193150 64 38 0.0 0.0 0.00 0.39 0.39 84 1012.0
20260505192649 64 19 0.0 0.0 0.00 0.39 0.39 84 1011.9
20260505192149 64 22 0.0 0.0 0.00 0.39 0.39 84 1011.8
20260505191649 64 22 0.0 0.0 0.00 0.39 0.39 83 1011.8
20260505191148 64 21 0.0 0.0 0.00 0.39 0.39 82 1011.8
20260505190648 64 29 0.0 0.0 0.00 0.39 0.39 82 1011.7
20260505190148 65 330 0.0 0.0 0.00 0.39 0.39 81 1011.7
20260505185648 65 329 0.0 0.0 0.00 0.39 0.39 81 1011.6
20260505185147 65 329 0.0 0.0 0.00 0.39 0.39 81 1011.6
20260505184647 65 329 0.0 0.0 0.00 0.39 0.39 81 1011.6
20260505184147 65 327 0.0 0.0 0.00 0.39 0.39 81 1011.5
20260505183647 65 323 0.0 0.0 0.00 0.39 0.39 81 1011.5
20260505183146 65 312 0.0 0.0 0.00 0.39 0.39 81 1011.5
20260505182646 65 316 0.0 0.0 0.00 0.39 0.39 81 1011.5
20260505182146 65 315 0.0 0.0 0.00 0.39 0.39 81 1011.5
20260505181645 65 347 0.0 0.0 0.00 0.39 0.39 81 1011.5
20260505181145 65 347 0.0 0.0 0.00 0.39 0.39 81 1011.5
20260505180645 66 348 0.0 0.0 0.00 0.39 0.39 81 1011.5
20260505180144 66 343 0.0 0.0 0.00 0.39 0.39 81 1011.4
20260505175644 66 335 0.0 0.0 0.00 0.39 0.39 81 1011.4
20260505175144 66 316 0.0 0.0 0.00 0.39 0.39 81 1011.3
20260505174644 66 323 0.0 0.0 0.00 0.39 0.39 80 1011.3
20260505174143 66 327 0.0 0.0 0.00 0.39 0.39 80 1011.2
20260505173643 66 326 0.0 0.0 0.00 0.39 0.39 80 1011.2
20260505173143 67 324 0.0 0.0 0.00 0.39 0.39 80 1011.2
20260505172642 67 322 0.0 0.0 0.00 0.39 0.39 79 1011.2
20260505172142 67 300 0.0 0.0 0.00 0.39 0.39 80 1011.2
20260505171642 67 290 0.0 0.0 0.00 0.39 0.39 80 1011.2
20260505171142 67 288 0.0 0.0 0.00 0.39 0.39 80 1011.1
20260505170641 67 300 0.0 0.0 0.00 0.39 0.39 80 1011.2
20260505170141 67 293 0.0 0.0 0.00 0.39 0.39 80 1011.1
20260505165641 66 292 0.0 0.0 0.00 0.39 0.39 80 1011.2
20260505165140 66 287 0.0 0.0 0.00 0.39 0.39 80 1011.2
20260505164640 67 272 0.0 0.0 0.00 0.39 0.39 80 1011.2
20260505164140 67 341 0.0 0.0 0.00 0.39 0.39 80 1011.2
20260505163640 67 345 0.0 0.0 0.00 0.39 0.39 80 1011.1
20260505163139 67 316 0.0 0.0 0.00 0.39 0.39 80 1011.1
20260505162639 67 324 0.0 0.0 0.00 0.39 0.39 80 1011.1
20260505162139 67 320 0.0 0.0 0.00 0.39 0.39 80 1011.2
20260505161638 67 280 0.0 0.0 0.00 0.39 0.39 79 1011.1
20260505161138 67 339 0.0 0.0 0.00 0.39 0.39 80 1011.1
20260505160638 67 12 0.0 0.0 0.00 0.39 0.39 80 1011.1
20260505160138 67 354 0.0 0.0 0.00 0.39 0.39 80 1011.2
20260505153136 68 354 0.0 0.0 0.00 0.39 0.39 78 1011.1
20260505152636 68 14 0.0 0.0 0.00 0.39 0.39 78 1011.1
20260505152135 68 348 0.0 0.0 0.00 0.39 0.39 77 1011.1
20260505151635 68 354 0.0 0.0 0.00 0.39 0.39 78 1011.1
20260505151135 68 326 0.0 0.0 0.00 0.39 0.39 78 1011.0
20260505150634 67 342 0.0 0.0 0.00 0.39 0.39 79 1011.1
20260505150134 67 4 0.0 0.0 0.00 0.39 0.39 79 1011.2
20260505140631 68 11 0.0 0.0 0.00 0.39 0.39 76 1011.1
20260505140131 69 354 0.0 0.0 0.00 0.39 0.39 75 1011.1
20260505130127 67 99 0.0 0.0 0.01 0.39 0.39 80 1011.5
20260505124626 67 350 0.0 0.0 0.01 0.39 0.39 85 1011.8
20260505124126 66 73 0.0 0.0 0.01 0.39 0.39 85 1011.7
20260505123626 65 69 0.0 0.0 0.00 0.38 0.38 87 1011.8
20260505123125 65 60 0.0 0.0 0.00 0.38 0.38 88 1011.8
20260505122625 65 67 0.0 0.0 0.00 0.38 0.38 88 1012.0
20260505122125 64 48 0.0 0.0 0.00 0.38 0.38 89 1012.1
20260505121625 64 27 0.0 0.0 0.00 0.38 0.38 90 1012.1
20260505121124 63 24 0.0 0.0 0.00 0.38 0.38 90 1012.2
20260505120624 63 23 0.0 0.0 0.00 0.38 0.38 91 1012.4
20260505120124 63 27 0.0 0.0 0.00 0.38 0.38 90 1012.3
20260505115623 63 28 0.0 0.0 0.00 0.38 0.38 91 1012.3
20260505115123 62 60 0.0 0.0 0.00 0.38 0.38 92 1012.3
20260505114623 62 79 0.0 0.0 0.00 0.38 0.38 92 1012.4
20260505114123 62 77 0.0 0.0 0.00 0.38 0.38 92 1012.4
20260505113622 62 98 0.0 0.0 0.00 0.38 0.38 93 1012.4
20260505113122 62 86 0.0 0.0 0.00 0.38 0.38 93 1012.4
20260505112622 62 122 0.0 0.0 0.00 0.38 0.38 93 1012.3
20260505112121 61 89 0.0 0.0 0.00 0.38 0.38 93 1012.2
20260505111621 61 90 0.0 0.0 0.00 0.38 0.38 93 1012.4
20260505111121 61 78 0.0 0.0 0.00 0.38 0.38 93 1012.4
20260505110621 61 84 0.0 0.0 0.00 0.38 0.38 93 1012.5
20260505110120 61 63 0.0 0.0 0.02 0.38 0.38 93 1012.6
20260505102118 60 54 0.0 0.0 0.09 0.38 0.38 92 1012.6
20260505101618 60 58 0.0 0.0 0.10 0.38 0.38 92 1012.7
20260505101117 60 112 0.0 0.0 0.10 0.38 0.38 92 1012.7
20260505100617 60 359 0.0 0.0 0.10 0.38 0.38 92 1012.6
20260505100117 60 68 0.0 0.0 0.08 0.36 0.36 91 1012.6
20260505095617 60 74 0.0 0.0 0.07 0.35 0.35 91 1012.8
20260505095116 60 120 0.0 0.0 0.04 0.32 0.32 91 1012.9
20260505094616 60 111 0.0 0.0 0.02 0.30 0.30 91 1012.9
20260505094116 60 80 0.0 0.0 0.01 0.29 0.29 91 1012.7
20260505093615 60 135 0.0 0.0 0.01 0.29 0.29 90 1012.7
20260505093115 60 81 0.0 0.0 0.01 0.29 0.29 90 1012.7
20260505092615 60 93 0.0 0.0 0.01 0.29 0.29 91 1012.6
20260505092115 60 85 0.0 0.0 0.01 0.29 0.29 90 1012.5
20260505091614 60 68 0.0 0.0 0.00 0.28 0.28 91 1012.5
20260505091114 60 343 0.0 0.0 0.00 0.28 0.28 91 1012.7
20260505090614 60 359 0.0 0.0 0.00 0.28 0.28 91 1012.9
20260505090113 59 276 0.0 0.0 0.00 0.28 0.28 91 1013.1
20260505085613 59 277 0.0 0.0 0.00 0.28 0.28 91 1012.9
20260505085113 59 359 0.0 0.0 0.00 0.28 0.28 91 1013.2
20260505084613 59 275 0.0 0.0 0.00 0.28 0.28 91 1013.3
20260505084112 59 148 0.0 0.0 0.00 0.28 0.28 91 1013.2
20260505083612 59 359 0.0 0.0 0.00 0.28 0.28 91 1013.1
20260505083112 59 143 0.0 0.0 0.00 0.28 0.28 91 1013.0
20260505082611 59 145 0.0 0.0 0.00 0.28 0.28 91 1012.9
20260505082111 59 145 0.0 0.0 0.00 0.28 0.28 92 1012.8
20260505081611 59 148 0.0 0.0 0.00 0.28 0.28 92 1012.7
20260505081110 59 142 0.0 0.0 0.00 0.28 0.28 91 1012.7
20260505080610 59 146 0.0 0.0 0.00 0.28 0.28 92 1012.5
20260505080110 58 144 0.0 0.0 0.00 0.28 0.28 92 1012.6
20260505075610 58 359 0.0 0.0 0.00 0.28 0.28 91 1012.7